Lincolnton, NC

3:30 AM EST on December 06, 2019 (GMT -0500)
Lincolnton-Lincoln County Regional

Weather History for KIPJ - July, 2019

Change the Weather History Date:

Monday, July 22, 2019

  Actual Average (KCLT) Record (KCLT)
Temperature  
Mean Temperature 80 °F -  
Max Temperature 89 °F 89 °F 103 °F (1926)
Min Temperature 70 °F 70 °F 58 °F (2001)
Cooling Degree Days 14    
Growing Degree Days 30 (Base 50)    
Moisture  
Dew Point 69 °F    
Average Humidity 74    
Maximum Humidity 100    
Minimum Humidity 44    
Precipitation  
Precipitation 0.56 in - - ()
Sea Level Pressure  
Sea Level Pressure 29.97 in    
Wind  
Wind Speed 5 mph (SW)    
Max Wind Speed 15 mph    
Max Gust Speed 26 mph    
Visibility 10 miles    
Events Rain    
Averages and records for this station are not official NWS values.
T = Trace of Precipitation, MM = Missing Value Source: NWS Daily Summary

Daily Weather History Graph

Daily Weather History Graph

Search for Another Location

Airport or City:

Astronomy

Jul. 22, 2019 Rise Set
Actual Time 6:25 AM EDT 8:36 PM EDT
Civil Twilight 5:56 AM EDT 9:05 PM EDT
Nautical Twilight 5:21 AM EDT 9:40 PM EDT
Astronomical Twilight 4:43 AM EDT 10:18 PM EDT
Moon No Moon Rise 11:31 AM EDT (7/22)
Length of Visible Light 15h 08m
Length of Day
14h 10m
Waning Gibbous, 72% of the Moon is Illuminated
Jul 22
Waning Gibbous
Jul 24
Last Quarter
Jul 31
New
Aug 7
First Quarter
Aug 15
Full

Hourly Weather History & Observations

Time (EDT) Temp. Heat Index Dew Point Humidity Pressure Visibility Wind Dir Wind Speed Gust Speed Precip Events Conditions
12:10 AM 77.9 °F - 68.2 °F 72% 30.01 in 10.0 mi Calm Calm - N/A   Clear
12:30 AM 77.9 °F - 67.5 °F 70% 30.01 in 10.0 mi SW 3.5 mph - N/A   Clear
12:50 AM 76.5 °F - 67.6 °F 74% 30.01 in 10.0 mi SW 4.6 mph - N/A   Clear
1:10 AM 77.4 °F - 67.1 °F 71% 30.01 in 10.0 mi SW 3.5 mph - N/A   Clear
1:30 AM 76.5 °F - 67.3 °F 73% 30.01 in 10.0 mi SW 4.6 mph - N/A   Clear
1:50 AM 77.2 °F - 66.7 °F 70% 30.01 in 10.0 mi SW 4.6 mph - N/A   Clear
2:10 AM 76.1 °F - 67.1 °F 74% 30.01 in 10.0 mi SW 3.5 mph - N/A   Clear
2:30 AM 76.1 °F - 66.6 °F 72% 30.00 in 10.0 mi SSW 3.5 mph - N/A   Clear
2:50 AM 73.4 °F - 67.3 °F 81% 29.99 in 10.0 mi WSW 3.5 mph - N/A   Clear
3:10 AM 73.4 °F - 67.6 °F 82% 29.99 in 10.0 mi SW 3.5 mph - N/A   Clear
3:30 AM 73.4 °F - 67.6 °F 82% 29.98 in 10.0 mi SW 3.5 mph - N/A   Clear
3:50 AM 72.1 °F - 68.0 °F 87% 29.98 in 10.0 mi WSW 3.5 mph - N/A   Clear
4:10 AM 72.0 °F - 68.0 °F 87% 29.98 in 10.0 mi Calm Calm - N/A   Clear
4:30 AM 72.0 °F - 68.2 °F 88% 29.98 in 10.0 mi Calm Calm - N/A   Clear
4:50 AM 72.3 °F - 68.2 °F 87% 29.98 in 10.0 mi Calm Calm - N/A   Clear
5:10 AM 71.6 °F - 68.9 °F 91% 29.98 in 10.0 mi SW 3.5 mph - N/A   Clear
5:30 AM 72.3 °F - 68.9 °F 89% 29.98 in 10.0 mi SW 4.6 mph - N/A   Clear
5:50 AM 72.5 °F - 68.9 °F 88% 29.98 in 10.0 mi SW 4.6 mph - N/A   Clear
6:10 AM 72.5 °F - 68.7 °F 88% 29.98 in 10.0 mi SW 3.5 mph - N/A   Clear
6:30 AM 72.0 °F - 68.5 °F 89% 29.98 in 10.0 mi SSW 3.5 mph - N/A   Clear
6:50 AM 70.9 °F - 68.5 °F 92% 29.98 in 10.0 mi SW 3.5 mph - N/A   Clear
7:10 AM 71.6 °F - 68.9 °F 91% 29.98 in 10.0 mi SW 3.5 mph - N/A   Clear
7:30 AM 72.7 °F - 68.9 °F 88% 29.99 in 10.0 mi SSW 3.5 mph - N/A   Clear
7:50 AM 72.9 °F - 68.9 °F 87% 30.00 in 10.0 mi SW 3.5 mph - N/A   Clear
8:10 AM 73.0 °F - 68.9 °F 87% 30.00 in 10.0 mi SW 3.5 mph - N/A   Clear
8:30 AM 73.4 °F - 69.4 °F 87% 30.00 in 10.0 mi SW 3.5 mph - N/A   Clear
8:50 AM 74.3 °F - 69.8 °F 86% 30.01 in 10.0 mi Calm Calm - N/A   Clear
9:10 AM 75.2 °F - 69.4 °F 82% 30.02 in 10.0 mi SW 4.6 mph - N/A   Clear
9:30 AM 76.5 °F - 70.0 °F 80% 30.02 in 10.0 mi WSW 4.6 mph - N/A   Clear
9:50 AM 77.9 °F - 69.6 °F 76% 30.02 in 10.0 mi WSW 4.6 mph - N/A   Clear
10:10 AM 78.8 °F - 69.1 °F 72% 30.01 in 10.0 mi WSW 6.9 mph - N/A   Clear
10:30 AM 78.8 °F - 69.3 °F 72% 30.01 in 10.0 mi WSW 8.1 mph - N/A   Clear
10:50 AM 81.0 °F 84.1 °F 69.3 °F 67% 30.01 in 10.0 mi SW 9.2 mph - N/A   Clear
11:10 AM 81.5 °F 84.6 °F 68.7 °F 65% 30.01 in 10.0 mi WSW 9.2 mph - N/A   Clear
11:30 AM 83.3 °F 86.9 °F 69.3 °F 62% 30.01 in 10.0 mi WSW 8.1 mph - N/A   Clear
11:50 AM 83.8 °F 86.7 °F 67.5 °F 58% 30.01 in 10.0 mi WSW 9.2 mph 17.3 mph N/A   Clear
12:10 PM 85.3 °F 88.8 °F 68.5 °F 57% 30.00 in 10.0 mi SW 6.9 mph - N/A   Clear
12:30 PM 86.5 °F 89.6 °F 67.8 °F 53% 30.00 in 10.0 mi WSW 15.0 mph 19.6 mph N/A   Clear
12:50 PM 86.7 °F 89.9 °F 67.8 °F 53% 30.00 in 10.0 mi WSW 10.4 mph - N/A   Clear
1:10 PM 87.6 °F 90.8 °F 67.3 °F 51% 29.99 in 10.0 mi WSW 12.7 mph 16.1 mph N/A   Scattered Clouds
1:30 PM 88.3 °F 90.9 °F 66.4 °F 48% 29.98 in 10.0 mi SW 8.1 mph 19.6 mph N/A   Scattered Clouds
1:50 PM 88.9 °F 91.0 °F 65.5 °F 46% 29.98 in 10.0 mi WSW 15.0 mph 24.2 mph N/A   Scattered Clouds
2:10 PM 88.0 °F 90.3 °F 65.8 °F 48% 29.96 in 10.0 mi WSW 11.5 mph 23.0 mph N/A   Clear
2:30 PM 89.4 °F 92.7 °F 67.5 °F 48% 29.96 in 10.0 mi WSW 15.0 mph 21.9 mph N/A   Scattered Clouds
2:50 PM 89.8 °F 92.5 °F 66.6 °F 46% 29.96 in 10.0 mi SW 11.5 mph 18.4 mph N/A   Scattered Clouds
3:10 PM 89.8 °F 92.5 °F 66.6 °F 46% 29.95 in 10.0 mi SW 12.7 mph 19.6 mph N/A   Scattered Clouds
3:30 PM 89.4 °F 91.2 °F 64.9 °F 44% 29.95 in 10.0 mi SSW 13.8 mph 18.4 mph N/A   Scattered Clouds
3:50 PM 88.9 °F 91.0 °F 65.7 °F 46% 29.94 in 10.0 mi SW 9.2 mph 17.3 mph N/A   Scattered Clouds
4:10 PM 89.4 °F 91.2 °F 64.9 °F 44% 29.93 in 10.0 mi SW 11.5 mph 18.4 mph N/A   Scattered Clouds
4:30 PM 89.6 °F 91.5 °F 64.9 °F 44% 29.93 in 10.0 mi SW 11.5 mph 17.3 mph N/A   Scattered Clouds
4:50 PM 89.1 °F 91.3 °F 65.7 °F 46% 29.92 in 10.0 mi SW 9.2 mph - N/A   Scattered Clouds
5:10 PM 87.8 °F 90.4 °F 66.7 °F 49% 29.92 in 10.0 mi SSW 10.4 mph - N/A   Clear
5:30 PM 86.5 °F 89.6 °F 67.5 °F 53% 29.92 in 10.0 mi SSW 6.9 mph - N/A   Scattered Clouds
5:50 PM 84.2 °F 87.3 °F 68.2 °F 58% 29.93 in 7.0 mi South 13.8 mph 20.7 mph N/A   Scattered Clouds
6:10 PM 77.9 °F - 71.4 °F 80% 29.92 in 10.0 mi Calm Calm - N/A   Scattered Clouds
6:30 PM 79.7 °F - 71.8 °F 77% 29.92 in 10.0 mi SSW 4.6 mph - N/A   Clear
6:50 PM 79.9 °F - 71.2 °F 75% 29.91 in 10.0 mi SSW 3.5 mph - N/A   Clear
7:10 PM 79.7 °F - 71.6 °F 76% 29.93 in 10.0 mi West 10.4 mph - N/A Rain Rain
7:30 PM 72.5 °F - 68.7 °F 88% 29.94 in 2.0 mi Calm Calm - 0.47 in Rain Rain
7:50 PM 74.3 °F - 72.0 °F 92% 29.95 in 10.0 mi SW 5.8 mph - 0.47 in Rain Light Rain
8:30 PM 74.7 °F - 73.4 °F 96% 29.94 in 10.0 mi Calm Calm - N/A   Clear
8:50 PM 73.6 °F - 73.6 °F 100% 29.94 in 10.0 mi Calm Calm - N/A   Scattered Clouds
9:10 PM 73.4 °F - 73.4 °F 100% 29.94 in 7.0 mi Calm Calm - N/A   Mostly Cloudy
9:30 PM 72.5 °F - 72.5 °F 100% 29.93 in 10.0 mi Calm Calm - N/A   Scattered Clouds
9:50 PM 72.3 °F - 72.3 °F 100% 29.94 in 10.0 mi Calm Calm - N/A   Scattered Clouds
10:10 PM 72.9 °F - 72.9 °F 100% 29.94 in 10.0 mi Calm Calm - N/A   Scattered Clouds
10:30 PM 73.0 °F - 73.0 °F 100% 29.94 in 10.0 mi Calm Calm - N/A   Scattered Clouds
11:10 PM 73.4 °F - 69.1 °F 86% 29.97 in 10.0 mi West 13.8 mph 26.5 mph 0.03 in Rain Heavy Rain
11:30 PM 70.7 °F - 69.3 °F 95% 29.95 in 10.0 mi Calm Calm - 0.07 in Rain Rain
11:50 PM 70.7 °F - 69.8 °F 97% 29.94 in 7.0 mi Calm Calm - 0.09 in Rain Light Rain